Left ArrowRight Arrow

Hourly Observations for August 3, 2020

Temp ( °F °C ) Dew Point ( °F °C ) Humidity (%) Winds ( mph kmh ) Pressure ( in mb ) Visibility ( mi km ) Precip ( " mm )
12:51 am 00:51 Clear 83 28.3 75 23.9 77 77 SSW 9 15 29.87 1011 10 16 0.00 0.00
1:51 am 01:51 Mostly Cloudy 83 28.3 74 23.3 74 74 WSW 9 15 29.87 1012 10 16 0.00 0.00
2:51 am 02:51 Clear 80 26.7 70 21.1 71 71 WSW 6 9 29.89 1012 10 16 0.00 0.00
3:51 am 03:51 Clear 80 26.7 69 20.6 69 69 WSW 8 13 29.90 1013 10 16 0.00 0.00
4:51 am 04:51 Clear 77 25 66 18.9 69 69 WSW 7 11 29.93 1013 10 16 0.00 0.00
5:51 am 05:51 Clear 77 25 65 18.3 66 66 WSW 6 9 29.95 1014 10 16 0.00 0.00
6:51 am 06:51 Partly Cloudy 77 25 63 17.2 62 62 W 8 13 29.96 1015 10 16 0.00 0.00
7:51 am 07:51 Mostly Sunny 78 25.6 63 17.2 60 60 WSW 7 11 29.98 1015 10 16 0.00 0.00
8:51 am 08:51 Sunny 80 26.7 63 17.2 56 56 W 7 11 29.99 1016 10 16 0.00 0.00
9:51 am 09:51 Mostly Sunny 82 27.8 64 17.8 55 55 VRB 3 6 30.00 1016 10 16 0.00 0.00
10:51 am 10:51 Sunny 83 28.3 64 17.8 53 53 VRB 6 9 30.01 1016 10 16 0.00 0.00
11:51 am 11:51 Sunny 85 29.4 65 18.3 51 51 W 10 17 30.00 1016 10 16 0.00 0.00
12:51 pm 12:51 Sunny 87 30.6 64 17.8 46 46 SW 10 17 30.00 1016 10 16 0.00 0.00
1:51 pm 13:51 Sunny 88 31.1 63 17.2 43 43 W 9 15 29.99 1016 10 16 0.00 0.00
2:51 pm 14:51 Sunny 87 30.6 62 16.7 43 43 WSW 13 20 29.99 1016 10 16 0.00 0.00
3:51 pm 15:51 Sunny 88 31.1 62 16.7 42 42 WSW 15 24 29.99 1016 10 16 0.00 0.00
4:51 pm 16:51 Mostly Sunny 90 32.2 63 17.2 41 41 WSW 15 24 29.98 1015 10 16 0.00 0.00
5:51 pm 17:51 Mostly Sunny 87 30.6 63 17.2 45 45 WSW 9 15 29.99 1016 10 16 0.00 0.00
6:51 pm 18:51 Sunny 86 30 64 17.8 48 48 W 9 15 29.99 1016 10 16 0.00 0.00
7:51 pm 19:51 Sunny 85 29.4 64 17.8 50 50 W 5 7 30.00 1016 10 16 0.00 0.00
8:51 pm 20:51 Mostly Cloudy with Nearby Thunderstorms 85 29.4 64 17.8 50 50 SSW 5 7 30.01 1016 10 16 0.00 0.00
9:07 pm 21:07 Mostly Cloudy with Strong Thunderstorms 82 27.8 66 18.9 58 58 SSW 26 43 30.04 1017 3 4 0.00 0.00
9:19 pm 21:19 Cloudy with Strong Thunderstorms 77 25 69 20.6 77 77 S 9 15 30.06 1018 7 11 0.12 3.05
9:43 pm 21:43 Mostly Cloudy with Rain 73 22.8 70 21.1 90 90 VRB 3 6 30.04 1017 7 11 0.19 4.83
9:51 pm 21:51 Mostly Cloudy with Rain 74 23.3 71 21.7 91 91 NNW 8 13 30.04 1017 7 11 0.20 5.08
10:51 pm 22:51 Clear 73 22.8 66 18.9 79 79 Calm 30.03 1017 10 16 0.00 0.00
11:51 pm 23:51 Partly Cloudy with Light Rain 73 22.8 68 20 84 84 Calm 30.01 1016 10 16 0.00 0.00

Powered by Vaisala Xweather